Back to catalog

AO-27

EYESAT A

AliveAmateur RadioSSO
NORAD 22825·PAYLOAD·🇺🇸 United States

Launched Sep 26, 1993 from Guiana Space Centre

Loading…

Next Passes (next 24 hours)

TLE

FreshSource: Space-Track

Epoch: Sep 14, 2026, 10:21 UTC

1 22825U 93061C   26257.43183635  .00000066  00000-0  42092-4 0  9996
2 22825  98.6797 324.7758 0008151 190.9932 169.1074 14.30961131719768

Track AO-27 in real time with AllMySat

Download on the App Store